H1 CPF 2 NER 2022 3 26 9 085 01 glonass127 H2 1106403 9127 37869 2022 3 26 0 0 0 2022 3 29 23 45 0 900 1 1 0 0 0 1 H9 10 0 59664 0.00000 0 15365896.347 -7717784.773 18912744.640 10 0 59664 900.00000 0 14086238.248 -5660020.653 20567687.126 10 0 59664 1800.00000 0 12881828.935 -3353989.456 21825761.417 10 0 59664 2700.00000 0 11800306.157 -847360.497 22662772.562 10 0 59664 3600.00000 0 10880586.006 1803516.574 23062596.529 10 0 59664 4500.00000 0 10151282.595 4535688.723 23017482.139 10 0 59664 5400.00000 0 9629571.724 7281951.752 22528199.905 10 0 59664 6300.00000 0 9320544.678 9973383.629 21604035.092 10 0 59664 7200.00000 0 9217078.706 12541957.396 20262624.538 10 0 59664 8100.00000 0 9300230.089 14923128.627 18529639.043 10 0 59664 9000.00000 0 9540134.639 17058292.922 16438315.398 10 0 59664 9900.00000 0 9897379.927 18897013.281 14028844.641 10 0 59664 10800.00000 0 10324793.936 20398925.872 11347625.565 10 0 59664 11700.00000 0 10769577.412 21535244.837 8446395.125 10 0 59664 12600.00000 0 11175692.185 22289802.432 5381250.096 10 0 59664 13500.00000 0 11486406.251 22659579.392 2211576.806 10 0 59664 14400.00000 0 11646888.759 22654701.113 -1001091.761 10 0 59664 15300.00000 0 11606744.798 22297897.427 -4194269.955 10 0 59664 16200.00000 0 11322381.349 21623446.430 -7305741.292 10 0 59664 17100.00000 0 10759101.835 20675644.953 -10274783.593 10 0 59664 18000.00000 0 9892837.547 19506868.950 -13043372.017 10 0 59664 18900.00000 0 8711439.055 18175305.160 -15557334.636 10 0 59664 19800.00000 0 7215469.277 16742450.186 -17767435.810 10 0 59664 20700.00000 0 5418461.173 15270483.679 -19630363.768 10 0 59664 21600.00000 0 3346626.140 13819628.235 -21109600.913 10 0 59664 22500.00000 0 1038022.989 12445609.439 -22176157.862 10 0 59664 23400.00000 0 -1458778.949 11197325.348 -22809155.216 10 0 59664 24300.00000 0 -4086487.124 10114825.542 -22996240.575 10 0 59664 25200.00000 0 -6781248.306 9227686.307 -22733832.064 10 0 59664 26100.00000 0 -9475094.862 8553851.139 -22027183.466 10 0 59664 27000.00000 0 -12098571.121 8098985.258 -20890270.173 10 0 59664 27900.00000 0 -14583428.588 7856370.331 -19345499.024 10 0 59664 28800.00000 0 -16865275.901 7807342.047 -17423249.016 10 0 59664 29700.00000 0 -18886071.883 7922249.610 -15161253.480 10 0 59664 30600.00000 0 -20596357.184 8161893.706 -12603837.587 10 0 59664 31500.00000 0 -21957131.525 8479379.166 -9801028.118 10 0 59664 32400.00000 0 -22941299.385 8822300.963 -6807554.850 10 0 59664 33300.00000 0 -23534625.671 9135168.520 -3681764.884 10 0 59664 34200.00000 0 -23736164.083 9361963.713 -484472.857 10 0 59664 35100.00000 0 -23558143.511 9448723.076 2722229.350 10 0 59664 36000.00000 0 -23025320.617 9346034.543 5876179.415 10 0 59664 36900.00000 0 -22173829.031 9011343.549 8916344.108 10 0 59664 37800.00000 0 -21049576.285 8410972.153 11783988.686 10 0 59664 38700.00000 0 -19706257.757 7521767.551 14423794.506 10 0 59664 39600.00000 0 -18203072.063 6332312.352 16784904.721 10 0 59664 40500.00000 0 -16602233.692 4843647.424 18821879.965 10 0 59664 41400.00000 0 -14966386.069 3069478.303 20495548.001 10 0 59664 42300.00000 0 -13356021.452 1035857.240 21773733.400 10 0 59664 43200.00000 0 -11827012.974 -1219645.955 22631855.723 10 0 59664 44100.00000 0 -10428358.975 -3649250.782 23053386.857 10 0 59664 45000.00000 0 -9200230.917 -6196698.098 23030160.318 10 0 59664 45900.00000 0 -8172403.667 -8799338.093 22562527.642 10 0 59664 46800.00000 0 -7363131.615 -11390490.759 21659359.088 10 0 59664 47700.00000 0 -6778516.306 -13901984.361 20337888.071 10 0 59664 48600.00000 0 -6412391.700 -16266770.035 18623401.026 10 0 59664 49500.00000 0 -6246732.377 -18421507.053 16548776.677 10 0 59664 50400.00000 0 -6252569.017 -20309013.649 14153881.149 10 0 59664 51300.00000 0 -6391374.643 -21880482.941 11484827.858 10 0 59664 52200.00000 0 -6616865.572 -23097372.127 8593113.663 10 0 59664 53100.00000 0 -6877143.420 -23932885.464 5534645.524 10 0 59664 54000.00000 0 -7117089.510 -24372987.611 2368674.340 10 0 59664 54900.00000 0 -7280911.657 -24416902.738 -843344.847 10 0 59664 55800.00000 0 -7314735.725 -24077075.867 -4038944.854 10 0 59664 56700.00000 0 -7169131.449 -23378595.472 -7155867.400 10 0 59664 57600.00000 0 -6801463.658 -22358099.255 -10133288.671 10 0 59664 58500.00000 0 -6177966.675 -21062207.351 -12913024.042 10 0 59664 59400.00000 0 -5275450.694 -19545547.879 -15440686.573 10 0 59664 60300.00000 0 -4082564.293 -17868457.815 -17666774.485 10 0 59664 61200.00000 0 -2600556.077 -16094456.661 -19547663.944 10 0 59664 62100.00000 0 -843499.978 -14287600.667 -21046485.578 10 0 59664 63000.00000 0 1162028.110 -12509830.766 -22133865.584 10 0 59664 63900.00000 0 3377810.605 -10818427.952 -22788515.269 10 0 59664 64800.00000 0 5755350.430 -9263685.054 -22997656.404 10 0 59664 65700.00000 0 8237678.166 -7886894.386 -22757273.398 10 0 59664 66600.00000 0 10761527.807 -6718736.897 -22072187.265 10 0 59664 67500.00000 0 13259788.870 -5778140.661 -20955950.343 10 0 59664 68400.00000 0 15664130.755 -5071655.979 -19430564.656 10 0 59664 69300.00000 0 17907687.962 -4593371.807 -17526030.719 10 0 59664 70200.00000 0 19927692.507 -4325374.583 -15279737.194 10 0 59664 71100.00000 0 21667942.574 -4238727.136 -12735705.127 10 0 59664 72000.00000 0 23081003.819 -4294923.037 -9943703.548 10 0 59664 72900.00000 0 24130051.794 -4447751.605 -6958255.710 10 0 59664 73800.00000 0 24790279.757 -4645491.565 -3837557.182 10 0 59664 74700.00000 0 25049814.984 -4833337.983 -642328.692 10 0 59664 75600.00000 0 24910107.963 -4955957.883 2565372.703 10 0 59664 76500.00000 0 24385781.235 -4960065.315 5723360.132 10 0 59664 77400.00000 0 23503947.378 -4796906.815 8770517.327 10 0 59664 78300.00000 0 22303027.577 -4424552.802 11647970.006 10 0 59664 79200.00000 0 20831122.629 -3809899.440 14300206.521 10 0 59664 80100.00000 0 19144006.089 -2930298.245 16676127.544 10 0 59664 81000.00000 0 17302824.078 -1774746.649 18730006.606 10 0 59664 81900.00000 0 15371597.391 -344591.054 20422345.315 10 0 59664 82800.00000 0 13414628.798 1346285.936 21720609.260 10 0 59664 83700.00000 0 11493921.436 3271801.597 22599832.887 10 0 59664 84600.00000 0 9666713.073 5394518.949 23043083.942 10 0 59664 85500.00000 0 7983225.972 7666968.503 23041780.168 10 0 59665 0.00000 0 6484723.194 10033392.958 22595853.331 10 0 59665 900.00000 0 5201948.943 12431846.558 21713757.374 10 0 59665 1800.00000 0 4154018.083 14796561.997 20412320.740 10 0 59665 2700.00000 0 3347797.338 17060494.282 18716443.622 10 0 59665 3600.00000 0 2777805.934 19157935.946 16658644.526 10 0 59665 4500.00000 0 2426639.730 21027098.739 14278462.280 10 0 59665 5400.00000 0 2265902.601 22612556.045 11621722.340 10 0 59665 6300.00000 0 2257607.864 23867445.062 8739678.723 10 0 59665 7200.00000 0 2355992.819 24755336.592 5688045.685 10 0 59665 8100.00000 0 2509671.807 25251693.067 2525935.709 10 0 59665 9000.00000 0 2664038.206 25344851.716 -685277.147 10 0 59665 9900.00000 0 2763814.463 25036488.964 -3883147.190 10 0 59665 10800.00000 0 2755641.888 24341543.718 -7005377.257 10 0 59665 11700.00000 0 2590599.244 23287599.932 -9991044.638 10 0 59665 12600.00000 0 2226541.244 21913752.039 -12781807.404 10 0 59665 13500.00000 0 1630154.968 20268999.257 -15323065.785 10 0 59665 14400.00000 0 778643.679 18410235.408 -17565053.707 10 0 59665 15300.00000 0 -339036.736 16399918.824 -19463836.788 10 0 59665 16200.00000 0 -1721444.417 14303521.128 -20982195.058 10 0 59665 17100.00000 0 -3354455.259 12186863.521 -22090371.152 10 0 59665 18000.00000 0 -5211614.265 10113454.385 -22766667.625 10 0 59665 18900.00000 0 -7255021.290 8141941.888 -22997880.599 10 0 59665 19800.00000 0 -9436714.571 6323790.229 -22779560.588 10 0 59665 20700.00000 0 -11700493.713 4701278.301 -22116095.238 10 0 59665 21600.00000 0 -13984104.787 3305905.227 -21020612.795 10 0 59665 22500.00000 0 -16221694.559 2157269.305 -19514708.991 10 0 59665 23400.00000 0 -18346429.327 1262466.200 -17628003.969 10 0 59665 24300.00000 0 -20293167.089 616029.475 -15397539.488 10 0 59665 25200.00000 0 -22001069.824 200413.021 -12867029.966 10 0 59665 26100.00000 0 -23416045.599 -13008.270 -10085984.025 10 0 59665 27000.00000 0 -24492918.142 -62465.473 -7108715.644 10 0 59665 27900.00000 0 -25197233.645 6084.019 -3993266.101 10 0 59665 28800.00000 0 -25506630.487 141160.179 -800259.483 10 0 59665 29700.00000 0 -25411716.647 288192.347 2408284.655 10 0 59665 30600.00000 0 -24916420.647 392074.936 5570157.509 10 0 59665 31500.00000 0 -24037804.198 399737.979 8624162.302 10 0 59665 32400.00000 0 -22805347.181 262623.918 11511287.630 10 0 59665 33300.00000 0 -21259737.356 -61033.063 14175831.113 10 0 59665 34200.00000 0 -19451217.186 -604219.848 16566453.024 10 0 59665 35100.00000 0 -17437557.808 -1389531.240 18637141.616 10 0 59665 36000.00000 0 -15281744.632 -2427996.881 20348073.872 10 0 59665 36900.00000 0 -13049470.058 -3718395.979 21666357.567 10 0 59665 37800.00000 0 -10806535.803 -5247087.617 22566642.847 10 0 59665 38700.00000 0 -8616270.269 -6988363.672 23031593.771 10 0 59665 39600.00000 0 -6537065.359 -8905310.344 23052212.416 10 0 59665 40500.00000 0 -4620131.972 -10951144.115 22628010.459 10 0 59665 41400.00000 0 -2907564.508 -13070969.036 21767025.220 10 0 59665 42300.00000 0 -1430792.570 -15203885.222 20485679.412 10 0 59665 43200.00000 0 -209482.566 -17285364.275 18808486.042 10 0 59665 44100.00000 0 749065.808 -19249796.098 16767602.227 10 0 59665 45000.00000 0 1450002.863 -21033103.968 14402238.107 10 0 59665 45900.00000 0 1910487.670 -22575321.159 11757929.556 10 0 59665 46800.00000 0 2158739.243 -23823022.911 8885685.898 10 0 59665 47700.00000 0 2232618.169 -24731512.357 5841026.628 10 0 59665 48600.00000 0 2177796.500 -25266668.120 2682923.570 10 0 59665 49500.00000 0 2045591.576 -25406374.371 -527332.608 10 0 59665 50400.00000 0 1890554.231 -25141470.734 -3727320.263 10 0 59665 51300.00000 0 1767913.268 -24476179.142 -6854706.037 10 0 59665 52200.00000 0 1730985.126 -23427986.543 -9848471.115 10 0 59665 53100.00000 0 1828660.102 -22026985.452 -12650119.132 10 0 59665 54000.00000 0 2103074.097 -20314697.742 -15204840.353 10 0 59665 54900.00000 0 2587567.586 -18342429.439 -17462607.213 10 0 59665 55800.00000 0 3305021.542 -16169225.052 -19379177.419 10 0 59665 56700.00000 0 4266644.118 -13859507.448 -20916982.778 10 0 59665 57600.00000 0 5471262.472 -11480503.321 -22045884.377 10 0 59665 58500.00000 0 6905152.148 -9099563.785 -22743777.610 10 0 59665 59400.00000 0 8542413.031 -6781494.220 -22997034.088 10 0 59665 60300.00000 0 10345877.053 -4586006.985 -22800771.084 10 0 59665 61200.00000 0 12268509.564 -2565405.256 -22158943.075 10 0 59665 62100.00000 0 14255244.818 -762595.798 -21084253.975 10 0 59665 63000.00000 0 16245177.269 790486.006 -19597892.548 10 0 59665 63900.00000 0 18174015.005 2073973.648 -17729097.476 10 0 59665 64800.00000 0 19976690.567 3080645.291 -15514562.081 10 0 59665 65700.00000 0 21590018.023 3815956.319 -12997692.187 10 0 59665 66600.00000 0 22955283.447 4297530.526 -10227733.583 10 0 59665 67500.00000 0 24020659.496 4554135.111 -7258788.139 10 0 59665 68400.00000 0 24743342.778 4624186.472 -4148739.637 10 0 59665 69300.00000 0 25091325.129 4553853.479 -958112.044 10 0 59665 70200.00000 0 25044726.020 4394841.415 2251116.214 10 0 59665 71100.00000 0 24596632.334 4201952.614 5416718.052 10 0 59665 72000.00000 0 23753412.786 4030528.344 8477419.727 10 0 59665 72900.00000 0 22534496.421 3933880.512 11374076.049 10 0 59665 73800.00000 0 20971626.847 3960821.264 14050796.941 10 0 59665 74700.00000 0 19107625.298 4153393.495 16456004.953 10 0 59665 75600.00000 0 16994715.400 4544896.206 18543405.350 10 0 59665 76500.00000 0 14692479.745 5158285.852 20272852.387 10 0 59665 77400.00000 0 12265532.777 6005018.983 21611097.527 10 0 59665 78300.00000 0 9781005.187 7084383.284 22532407.712 10 0 59665 79200.00000 0 7305941.934 8383344.272 23019043.995 10 0 59665 80100.00000 0 4904719.053 9876914.128 23061593.058 10 0 59665 81000.00000 0 2636583.245 11529028.286 22659146.370 10 0 59665 81900.00000 0 553413.144 13293895.172 21819323.926 10 0 59665 82800.00000 0 -1302207.484 15117765.401 20558141.656 10 0 59665 83700.00000 0 -2898526.791 16941049.886 18899723.887 10 0 59665 84600.00000 0 -4215709.559 18700701.842 16875864.458 10 0 59665 85500.00000 0 -5246424.796 20332766.439 14525442.594 10 0 59666 0.00000 0 -5995911.278 21774994.140 11893702.320 10 0 59666 900.00000 0 -6481517.529 22969411.040 9031405.062 10 0 59666 1800.00000 0 -6731732.949 23864737.481 5993872.876 10 0 59666 2700.00000 0 -6784750.325 24418555.872 2839933.884 10 0 59666 3600.00000 0 -6686617.514 24599133.336 -369207.753 10 0 59666 4500.00000 0 -6489055.375 24386821.120 -3571157.574 10 0 59666 5400.00000 0 -6247033.509 23774968.795 -6703549.113 10 0 59666 6300.00000 0 -6016206.528 22770311.459 -9705270.407 10 0 59666 7200.00000 0 -5850320.510 21392810.315 -12517673.411 10 0 59666 8100.00000 0 -5798701.405 19674950.412 -15085740.923 10 0 59666 9000.00000 0 -5903934.426 17660522.691 -17359186.072 10 0 59666 9900.00000 0 -6199835.694 15402940.106 -19293460.502 10 0 59666 10800.00000 0 -6709805.221 12963157.938 -20850649.308 10 0 59666 11700.00000 0 -7445633.948 10407285.818 -22000233.201 10 0 59666 12600.00000 0 -8406817.871 7803992.686 -22719701.243 10 0 59666 13500.00000 0 -9580410.210 5221814.833 -22995001.007 10 0 59666 14400.00000 0 -10941419.104 2726481.422 -22820816.617 10 0 59666 15300.00000 0 -12453734.403 378371.022 -22200669.067 10 0 59666 16200.00000 0 -14071544.133 -1769793.296 -21146837.180 10 0 59666 17100.00000 0 -15741179.928 -3674913.413 -19680101.576 10 0 59666 18000.00000 0 -17403312.121 -5305068.009 -17829317.860 10 0 59666 18900.00000 0 -18995400.372 -6640583.122 -15630828.945 10 0 59666 19800.00000 0 -20454294.872 -7674578.756 -13127729.772 10 0 59666 20700.00000 0 -21718877.104 -8412971.495 -10369000.790 10 0 59666 21600.00000 0 -22732627.991 -8873936.641 -7408529.093 10 0 59666 22500.00000 0 -23446014.926 -9086856.378 -4304038.212 10 0 59666 23400.00000 0 -23818597.539 -9090802.090 -1115949.190 10 0 59666 24300.00000 0 -23820764.656 -8932618.429 2093803.507 10 0 59666 25200.00000 0 -23435031.103 -8664692.885 5262977.340 10 0 59666 26100.00000 0 -22656841.959 -8342507.130 8330224.404 10 0 59666 27000.00000 0 -21494852.895 -8022074.619 11236268.455 10 0 59666 27900.00000 0 -19970677.075 -7757372.751 13925034.324 10 0 59666 28800.00000 0 -18118111.206 -7597877.083 16344709.261 10 0 59666 29700.00000 0 -15981874.401 -7586300.004 18448717.705 10 0 59666 30600.00000 0 -13615912.981 -7756627.059 20196593.011 10 0 59666 31500.00000 0 -11081341.507 -8132531.351 21554731.780 10 0 59666 32400.00000 0 -8444104.333 -8726230.637 22497018.793 10 0 59666 33300.00000 0 -5772452.624 -9537833.662 23005312.733 10 0 59666 34200.00000 0 -3134338.797 -10555202.377 23069785.124 10 0 59666 35100.00000 0 -594833.148 -11754336.083 22689107.123 10 0 59666 36000.00000 0 1786333.538 -13100262.660 21870480.980 10 0 59666 36900.00000 0 3957002.534 -14548401.664 20629515.154 10 0 59666 37800.00000 0 5874504.829 -16046345.139 18989944.349 10 0 59666 38700.00000 0 7507186.113 -17535984.844 16983197.950 10 0 59666 39600.00000 0 8835476.532 -18955900.152 14647822.834 10 0 59666 40500.00000 0 9852460.722 -20243909.572 12028768.999 10 0 59666 41400.00000 0 10563923.593 -21339681.268 9176548.962 10 0 59666 42300.00000 0 10987868.503 -22187294.407 6146284.662 10 0 59666 43200.00000 0 11153526.324 -22737644.068 2996658.077 10 0 59666 44100.00000 0 11099895.240 -22950587.744 -211215.777 10 0 59666 45000.00000 0 10873871.213 -22796741.212 -3414972.389 10 0 59666 45900.00000 0 10528046.955 -22258845.388 -6552215.030 10 0 59666 46800.00000 0 10118272.136 -21332643.264 -9561741.461 10 0 59666 47700.00000 0 9701078.524 -20027226.439 -12384754.803 10 0 59666 48600.00000 0 9331080.444 -18364833.251 -14966033.148 10 0 59666 49500.00000 0 9058462.743 -16380104.032 -17255032.953 10 0 59666 50400.00000 0 8926665.250 -14118822.628 -19206902.237 10 0 59666 51300.00000 0 8970364.694 -11636195.736 -20783381.545 10 0 59666 52200.00000 0 9213842.375 -8994741.770 -21953573.038 10 0 59666 53100.00000 0 9669809.207 -6261878.278 -22694560.887 10 0 59666 54000.00000 0 10338739.880 -3507309.987 -22991869.647 10 0 59666 54900.00000 0 11208745.598 -800328.199 -22839750.904 10 0 59666 55800.00000 0 12255991.327 1792863.845 -22241292.365 10 0 59666 56700.00000 0 13445639.676 4211686.527 -21208347.589 10 0 59666 57600.00000 0 14733280.624 6403473.466 -19761288.500 10 0 59666 58500.00000 0 16066785.234 8325419.248 -17928586.730 10 0 59666 59400.00000 0 17388503.279 9946104.494 -15746233.522 10 0 59666 60300.00000 0 18637710.107 11246536.112 -13257011.311 10 0 59666 61200.00000 0 19753197.658 12220661.507 -10509633.194 10 0 59666 62100.00000 0 20675898.886 12875338.490 -7557769.110 10 0 59666 63000.00000 0 21351433.997 13229765.843 -4458979.605 10 0 59666 63900.00000 0 21732470.892 13314402.391 -1273579.791 10 0 59666 64800.00000 0 21780800.841 13169423.911 1936543.036 10 0 59666 65700.00000 0 21469043.124 12842786.278 5109134.183 10 0 59666 66600.00000 0 20781908.627 12387979.100 8182774.875 10 0 59666 67500.00000 0 19716971.330 11861566.352 11098061.000 10 0 59666 68400.00000 0 18284917.412 11320618.375 13798735.320 10 0 59666 69300.00000 0 16509263.478 10820143.191 16232752.569 10 0 59666 70200.00000 0 14425557.152 10410624.099 18353258.880 10 0 59666 71100.00000 0 12080094.110 10135765.311 20119468.940 10 0 59666 72000.00000 0 9528204.990 10030538.123 21497426.413 10 0 59666 72900.00000 0 6832182.402 10119607.371 22460635.494 10 0 59666 73800.00000 0 4058932.206 10416202.162 22990553.708 10 0 59666 74700.00000 0 1277443.956 10921476.772 23076938.218 10 0 59666 75600.00000 0 -1443817.849 11624387.919 22718040.208 10 0 59666 76500.00000 0 -4039497.005 12502093.877 21920644.033 10 0 59666 77400.00000 0 -6449799.519 13520860.036 20699950.026 10 0 59666 78300.00000 0 -8622719.431 14637435.169 19079302.101 10 0 59666 79200.00000 0 -10515946.414 15800843.544 17089763.547 10 0 59666 80100.00000 0 -12098377.254 16954520.828 14769546.834 10 0 59666 81000.00000 0 -13351168.817 18038707.237 12163305.772 10 0 59666 81900.00000 0 -14268288.192 18993000.042 9321300.822 10 0 59666 82800.00000 0 -14856535.824 19758959.992 6298451.184 10 0 59666 83700.00000 0 -15135039.016 20282662.855 3153289.704 10 0 59666 84600.00000 0 -15134235.163 20517088.348 -53160.797 10 0 59666 85500.00000 0 -14894385.634 20424244.401 -3258568.838 10 0 59667 0.00000 0 -14463681.538 19976934.841 -6400510.207 10 0 59667 900.00000 0 -13896020.260 19160092.475 -9417695.949 10 0 59667 1800.00000 0 -13248547.263 17971618.493 -12251182.900 10 0 59667 2700.00000 0 -12579067.154 16422688.287 -14845547.099 10 0 59667 3600.00000 0 -11943435.670 14537507.923 -17149990.707 10 0 59667 4500.00000 0 -11393044.923 12352528.526 -19119360.177 10 0 59667 5400.00000 0 -10972510.958 9915149.580 -20715053.235 10 0 59667 6300.00000 0 -10717664.122 7281964.384 -21905794.867 10 0 59667 7200.00000 0 -10653929.747 4516621.085 -22668265.373 10 0 59667 8100.00000 0 -10795169.681 1687389.408 -22987566.952 10 0 59667 9000.00000 0 -11143035.044 -1135464.014 -22857518.936 10 0 59667 9900.00000 0 -11686858.195 -3882380.391 -22280775.651 10 0 59667 10800.00000 0 -12404088.329 -6487179.189 -21268764.900 10 0 59667 11700.00000 0 -13261251.364 -8889581.441 -19841449.019 10 0 59667 12600.00000 0 -14215392.019 -11037479.803 -18026914.397 10 0 59667 13500.00000 0 -15215935.175 -12888860.659 -15860798.994 10 0 59667 14400.00000 0 -16206885.649 -14413298.842 -13385570.818 10 0 59667 15300.00000 0 -17129271.267 -15592964.262 -10649673.472 10 0 59667 16200.00000 0 -17923724.117 -16423100.968 -7706557.414 10 0 59667 17100.00000 0 -18533089.492 -16911961.961 -4613617.758 10 0 59667 18000.00000 0 -18904951.567 -17080206.171 -1431061.130 10 0 59667 18900.00000 0 -18993969.097 -16959786.849 1779274.972 10 0 59667 19800.00000 0 -18763923.270 -16592381.764 4955126.408 10 0 59667 20700.00000 0 -18189392.664 -16027434.322 8035006.291 10 0 59667 21600.00000 0 -17256986.545 -15319890.407 10959385.422 10 0 59667 22500.00000 0 -15966086.568 -14527727.505 13671827.241 10 0 59667 23400.00000 0 -14329067.698 -13709380.377 16120056.616 10 0 59667 24300.00000 0 -12370990.615 -12921170.826 18256943.851 10 0 59667 25200.00000 0 -10128779.385 -12214847.989 20041387.184 10 0 59667 26100.00000 0 -7649918.936 -11635340.252 21439079.230 10 0 59667 27000.00000 0 -4990725.820 -11218810.624 22423145.131 10 0 59667 27900.00000 0 -2214262.497 -10991094.643 22974642.385 10 0 59667 28800.00000 0 612020.662 -10966584.199 23082914.537 10 0 59667 29700.00000 0 3418820.936 -11147602.631 22745793.165 10 0 59667 30600.00000 0 6137594.759 -11524296.736 21969644.748 10 0 59667 31500.00000 0 8703140.324 -12075050.633 20769261.185 10 0 59667 32400.00000 0 11056047.470 -12767405.562 19167594.990 10 0 59667 33300.00000 0 13144915.875 -13559449.184 17195342.428 10 0 59667 34200.00000 0 14928251.161 -14401618.812 14890380.325 10 0 59667 35100.00000 0 16375961.020 -15238845.713 12297064.712 10 0 59667 36000.00000 0 17470388.965 -16012953.046 9465402.058 10 0 59667 36900.00000 0 18206841.585 -16665208.705 6450106.510 10 0 59667 37800.00000 0 18593585.714 -17138926.826 3309559.158 10 0 59667 38700.00000 0 18651313.683 -17382008.607 104687.725 10 0 59667 39600.00000 0 18412096.997 -17349314.374 -3102212.432 10 0 59667 40500.00000 0 17917870.705 -17004764.863 -6248693.349 10 0 59667 41400.00000 0 17218510.991 -16323080.184 -9273381.381 10 0 59667 42300.00000 0 16369586.495 -15291079.593 -12117190.749 10 0 59667 43200.00000 0 15429878.545 -13908483.471 -14724498.356 10 0 59667 44100.00000 0 14458776.105 -12188179.964 -17044254.786 10 0 59667 45000.00000 0 13513657.271 -10155941.738 -19031007.395 10 0 59667 45900.00000 0 12647370.239 -7849602.116 -20645813.254 10 0 59667 46800.00000 0 11905922.635 -5317723.338 -21857022.007 10 0 59667 47700.00000 0 11326479.309 -2617811.984 -22640911.540 10 0 59667 48600.00000 0 10935755.191 185843.682 -22982162.760 10 0 59667 49500.00000 0 10748872.617 3024623.282 -22874163.418 10 0 59667 50400.00000 0 10768732.136 5828207.020 -22319134.738 10 0 59667 51300.00000 0 10985923.297 8527280.070 -21328078.673 10 0 59667 52200.00000 0 11379178.302 11056194.310 -19920547.538 10 0 59667 53100.00000 0 11916347.789 13355475.055 -18124241.693 10 0 59667 54000.00000 0 12555855.342 15374067.680 -15974444.692 10 0 59667 54900.00000 0 13248566.807 17071230.515 -13513308.656 10 0 59667 55800.00000 0 13939992.804 18417996.014 -10789005.868 10 0 59667 56700.00000 0 14572728.945 19398141.090 -7854765.129 10 0 59667 57600.00000 0 15089028.592 20008628.811 -4767813.606 10 0 59667 58500.00000 0 15433397.991 20259506.296 -1588246.636 10 0 59667 59400.00000 0 15555103.446 20173266.817 1622151.114 10 0 59667 60300.00000 0 15410484.734 19783706.595 4801109.212 10 0 59667 61200.00000 0 14964977.901 19134327.658 7887075.865 10 0 59667 62100.00000 0 14194763.588 18276356.613 10820399.954 10 0 59667 63000.00000 0 13087973.159 17266464.461 13544468.643 10 0 59667 63900.00000 0 11645403.832 16164284.062 16006779.820 10 0 59667 64800.00000 0 9880714.406 15029829.315 18159930.635 10 0 59667 65700.00000 0 7820094.530 13920923.135 19962505.308 10 0 59667 66600.00000 0 5501421.831 12890740.132 21379847.575 10 0 59667 67500.00000 0 2972941.659 11985564.441 22384705.374 10 0 59667 68400.00000 0 291523.035 11242853.883 22957737.673 10 0 59667 69300.00000 0 -2479438.771 10689688.956 23087875.488 10 0 59667 70200.00000 0 -5272388.922 10341669.438 22772531.417 10 0 59667 71100.00000 0 -8018154.168 10202303.450 22017654.180 10 0 59667 72000.00000 0 -10648556.590 10262914.072 20837626.819 10 0 59667 72900.00000 0 -13098995.006 10503067.974 19255009.469 10 0 59667 73800.00000 0 -15310889.915 10891509.471 17300129.865 10 0 59667 74700.00000 0 -17233892.575 11387562.949 15010527.193 10 0 59667 75600.00000 0 -18827767.747 11942947.279 12430257.312 10 0 59667 76500.00000 0 -20063872.004 12503928.525 9609069.987 10 0 59667 77400.00000 0 -20926165.239 13013722.615 6601471.400 10 0 59667 78300.00000 0 -21411711.717 13415048.391 3465687.832 10 0 59667 79200.00000 0 -21530647.644 13652724.079 262548.802 10 0 59667 80100.00000 0 -21305614.378 13676197.277 -2945689.559 10 0 59667 81000.00000 0 -20770678.906 13441900.182 -6096558.343 10 0 59667 81900.00000 0 -19969785.212 12915328.160 -9128602.793 10 0 59667 82800.00000 0 -18954800.615 12072750.664 -11982597.116 10 0 59667 83700.00000 0 -17783239.058 10902478.559 -14602721.801 10 0 59667 84600.00000 0 -16515757.853 9405630.523 -16937678.328 10 0 59667 85500.00000 0 -15213534.756 7596362.600 -18941717.119 99